Date String (YYYY-MM-DD hh:mm:ss) UTC,Instrument flags,absolute air pressure of the measurement (hPa),sample flow rate (lpm),inlet stack bypass flow (lpm),air temperature of the measurement (°C),ambient temperature measured by the external sensor (°C),aerosol sample conditioner tube jacket temperature (°C),OPC LED temperature (°C),internal box temperature (°C),relative humidity of the measurement (%),span deviation,mass concentration of particles derived from Lorenz-Mie calculation of OPC scattering (μg/m³),mass concentration of particles derived from Lorenz-Mie calculation of OPC scattering (μg/m³),mass concentration of particles derived from Lorenz-Mie calculation of OPC scattering (μg/m³)
DateTimeUTC,F1_M11,P_M11,Q1_M11,Q2_M11,T1_M11,T2_M11,T3_M11,T4_M11,T5_M11,U1_M11,ZSPAN_M11,X2_M11,X0_M11,X1_M11
2024-03-10 04:00:00,SystemResetWarning,0828.9,5.00,000.00,018.8,017.8,000.0,027.4,020.4,07.0,0000.0,0001.86,0007.65,0000.95
2024-03-10 04:01:00,SystemResetWarning,0829.0,5.00,000.00,018.8,017.7,000.0,027.4,020.4,07.2,0000.0,0001.85,0007.58,0000.97
2024-03-10 04:02:00,SystemResetWarning,0829.0,4.99,000.00,018.8,017.7,000.0,027.4,020.4,07.0,0000.0,0001.83,0006.74,0000.98
2024-03-10 04:03:00,SystemResetWarning,0828.9,5.00,000.00,018.7,017.7,000.0,027.4,020.4,07.2,0000.0,0001.84,0006.39,0000.99
2024-03-10 04:04:00,SystemResetWarning,0829.0,5.00,000.00,018.7,017.7,000.0,027.4,020.4,07.3,0000.0,0001.83,0006.34,0000.99
2024-03-10 04:05:00,SystemResetWarning,0829.0,5.00,000.00,018.7,017.7,000.0,027.4,020.4,07.0,0000.0,0001.85,0005.69,0001.00
2024-03-10 04:06:00,SystemResetWarning,0829.0,4.99,000.00,018.7,017.7,000.0,027.3,020.3,07.0,0000.0,0001.79,0005.24,0001.00
2024-03-10 04:07:00,SystemResetWarning,0828.9,5.01,000.00,018.7,017.7,000.0,027.3,020.3,07.3,0000.0,0001.79,0004.14,0000.99
2024-03-10 04:08:00,SystemResetWarning,0828.9,5.01,000.00,018.7,017.7,000.0,027.3,020.3,07.4,0000.0,0001.74,0004.82,0000.98
2024-03-10 04:09:00,SystemResetWarning,0828.9,5.01,000.00,018.7,017.7,000.0,027.3,020.3,07.4,0000.0,0001.72,0006.42,0000.99
2024-03-10 04:10:00,SystemResetWarning,0828.9,4.99,000.00,018.7,017.7,000.0,027.3,020.3,07.5,0000.0,0001.67,0006.18,0000.99
2024-03-10 04:11:00,SystemResetWarning,0828.9,5.00,000.00,018.6,017.7,000.0,027.3,020.3,07.5,0000.0,0001.72,0006.41,0001.00
2024-03-10 04:12:00,SystemResetWarning,0828.9,5.00,000.00,018.6,017.7,000.0,027.3,020.3,07.5,0000.0,0001.74,0006.68,0001.00
2024-03-10 04:13:00,SystemResetWarning,0828.9,5.01,000.00,018.6,017.7,000.0,027.2,020.3,07.5,0000.0,0001.76,0006.73,0001.02
2024-03-10 04:14:00,SystemResetWarning,0828.9,5.00,000.00,018.6,017.7,000.0,027.2,020.3,07.6,0000.0,0001.77,0006.77,0001.02
2024-03-10 04:15:00,SystemResetWarning,0828.8,5.00,000.00,018.6,017.7,000.0,027.2,020.3,07.5,0000.0,0001.78,0006.89,0001.02
2024-03-10 04:16:00,SystemResetWarning,0828.8,4.99,000.00,018.6,017.6,000.0,027.2,020.2,07.5,0000.0,0001.75,0007.03,0001.02
2024-03-10 04:17:00,SystemResetWarning,0828.8,5.00,000.00,018.6,017.6,000.0,027.2,020.2,07.6,0000.0,0001.74,0007.35,0001.02
2024-03-10 04:18:00,SystemResetWarning,0828.7,4.99,000.00,018.6,017.6,000.0,027.2,020.2,07.6,0000.0,0001.76,0007.39,0001.02
2024-03-10 04:19:00,SystemResetWarning,0828.8,5.00,000.00,018.5,017.6,000.0,027.2,020.2,07.7,0000.0,0001.79,0006.68,0001.02
2024-03-10 04:20:00,SystemResetWarning,0828.8,4.99,000.00,018.5,017.5,000.0,027.2,020.2,07.8,0000.0,0001.81,0005.28,0001.03
2024-03-10 04:21:00,SystemResetWarning,0828.8,5.00,000.00,018.5,017.5,000.0,027.2,020.2,07.7,0000.0,0001.79,0005.28,0001.04
2024-03-10 04:22:00,SystemResetWarning,0828.8,5.00,000.00,018.5,017.5,000.0,027.1,020.2,07.7,0000.0,0001.77,0005.11,0001.03
2024-03-10 04:23:00,SystemResetWarning,0828.8,5.00,000.00,018.5,017.5,000.0,027.1,020.2,07.8,0000.0,0001.72,0004.83,0001.04
2024-03-10 04:24:00,SystemResetWarning,0828.8,5.01,000.00,018.5,017.5,000.0,027.1,020.2,07.8,0000.0,0001.70,0004.84,0001.04
2024-03-10 04:25:00,SystemResetWarning,0828.8,5.01,000.00,018.5,017.5,000.0,027.1,020.1,07.8,0000.0,0001.68,0004.82,0001.03
2024-03-10 04:26:00,SystemResetWarning,0828.7,5.00,000.00,018.5,017.5,000.0,027.1,020.1,07.9,0000.0,0001.69,0004.79,0001.03
2024-03-10 04:27:00,SystemResetWarning,0828.8,5.00,000.00,018.5,017.5,000.0,027.1,020.1,07.9,0000.0,0001.69,0004.67,0001.03
2024-03-10 04:28:00,SystemResetWarning,0828.7,4.99,000.00,018.4,017.5,000.0,027.1,020.1,07.9,0000.0,0001.68,0004.15,0001.03
2024-03-10 04:29:00,SystemResetWarning,0828.8,5.00,000.00,018.4,017.5,000.0,027.1,020.1,08.0,0000.0,0001.73,0004.16,0001.04
2024-03-10 04:30:00,SystemResetWarning,0828.8,5.02,000.00,018.4,017.5,000.0,027.0,020.1,08.1,0000.0,0001.74,0004.23,0001.05
2024-03-10 04:31:00,SystemResetWarning,0828.8,4.99,000.00,018.4,017.5,000.0,027.0,020.1,08.1,0000.0,0001.76,0003.81,0001.05
2024-03-10 04:32:00,SystemResetWarning,0828.7,4.99,000.00,018.4,017.4,000.0,027.0,020.1,08.1,0000.0,0001.82,0003.96,0001.04
2024-03-10 04:33:00,SystemResetWarning,0828.7,5.01,000.00,018.4,017.4,000.0,027.0,020.0,08.0,0000.0,0001.83,0004.14,0001.03
2024-03-10 04:34:00,SystemResetWarning,0828.7,5.01,000.00,018.4,017.4,000.0,027.0,020.0,08.0,0000.0,0001.89,0004.46,0001.03
2024-03-10 04:35:00,SystemResetWarning,0828.7,5.00,000.00,018.4,017.4,000.0,027.0,020.0,08.1,0000.0,0001.95,0004.83,0001.04
2024-03-10 04:36:00,SystemResetWarning,0828.7,4.99,000.00,018.4,017.4,000.0,027.0,020.0,08.4,0000.0,0002.01,0004.90,0001.04
2024-03-10 04:37:00,SystemResetWarning,0828.7,4.99,000.00,018.3,017.4,000.0,027.0,020.0,08.5,0000.0,0002.03,0004.91,0001.06
2024-03-10 04:38:00,SystemResetWarning,0828.7,5.00,000.00,018.3,017.4,000.0,027.0,020.0,08.8,0000.0,0002.08,0005.07,0001.07
2024-03-10 04:39:00,SystemResetWarning,0828.7,5.01,000.00,018.3,017.4,000.0,027.0,020.0,09.0,0000.0,0002.11,0005.18,0001.08
2024-03-10 04:40:00,SystemResetWarning,0828.7,5.01,000.00,018.3,017.4,000.0,027.0,020.0,09.0,0000.0,0002.10,0005.41,0001.08
2024-03-10 04:41:00,SystemResetWarning,0828.7,5.00,000.00,018.3,017.4,000.0,027.0,020.0,09.4,0000.0,0002.13,0005.47,0001.09
2024-03-10 04:42:00,SystemResetWarning,0828.7,5.00,000.00,018.3,017.4,000.0,027.0,020.0,09.4,0000.0,0002.09,0005.31,0001.10
2024-03-10 04:43:00,SystemResetWarning,0828.7,4.99,000.00,018.3,017.4,000.0,027.0,020.0,09.4,0000.0,0002.09,0005.12,0001.12
2024-03-10 04:44:00,SystemResetWarning,0828.7,5.00,000.00,018.3,017.4,000.0,027.0,020.0,09.4,0000.0,0002.16,0005.28,0001.13
2024-03-10 04:45:00,SystemResetWarning,0828.7,5.00,000.00,018.3,017.3,000.0,026.9,020.0,09.5,0000.0,0002.17,0005.27,0001.12
2024-03-10 04:46:00,SystemResetWarning,0828.7,4.99,000.00,018.3,017.3,000.0,026.9,020.0,09.4,0000.0,0002.19,0005.94,0001.13
2024-03-10 04:47:00,SystemResetWarning,0828.7,5.00,000.00,018.3,017.3,000.0,026.9,020.0,09.2,0000.0,0002.18,0006.11,0001.14
2024-03-10 04:48:00,SystemResetWarning,0828.7,5.00,000.00,018.3,017.3,000.0,026.9,020.0,09.1,0000.0,0002.15,0006.00,0001.14
2024-03-10 04:49:00,SystemResetWarning,0828.7,5.00,000.00,018.3,017.3,000.0,026.9,020.0,09.4,0000.0,0002.16,0006.04,0001.14
2024-03-10 04:50:00,SystemResetWarning,0828.7,5.00,000.00,018.3,017.3,000.0,026.9,020.0,09.6,0000.0,0002.19,0006.14,0001.13
2024-03-10 04:51:00,SystemResetWarning,0828.7,5.00,000.00,018.3,017.4,000.0,026.9,020.0,09.3,0000.0,0002.20,0006.08,0001.13
2024-03-10 04:52:00,SystemResetWarning,0828.7,4.99,000.00,018.3,017.4,000.0,026.9,020.0,09.2,0000.0,0002.17,0006.54,0001.11
2024-03-10 04:53:00,SystemResetWarning,0828.7,5.01,000.00,018.3,017.5,000.0,026.9,020.0,09.2,0000.0,0002.22,0006.71,0001.12
2024-03-10 04:54:00,SystemResetWarning,0828.7,5.01,000.00,018.3,017.5,000.0,026.9,020.0,09.3,0000.0,0002.20,0007.46,0001.12
2024-03-10 04:55:00,SystemResetWarning,0828.6,4.99,000.00,018.3,017.5,000.0,026.9,020.0,09.4,0000.0,0002.21,0007.78,0001.12
2024-03-10 04:56:00,SystemResetWarning,0828.6,4.99,000.00,018.3,017.5,000.0,026.9,020.0,09.5,0000.0,0002.20,0008.01,0001.12
2024-03-10 04:57:00,SystemResetWarning,0828.6,4.99,000.00,018.3,017.5,000.0,026.9,020.0,09.3,0000.0,0002.14,0007.39,0001.12
2024-03-10 04:58:00,SystemResetWarning,0828.6,5.02,000.00,018.3,017.5,000.0,026.9,020.0,09.4,0000.0,0002.08,0007.01,0001.12
2024-03-10 04:59:00,SystemResetWarning,0828.6,5.00,000.00,018.3,017.5,000.0,026.9,020.0,09.5,0000.0,0002.09,0007.03,0001.12
